Theta_e
352 336 328 336 336 338 341 342 340 335 333 332 332 335 336 335 335 333 333 332 337 345 346 339 336 336 337 336 336 338 336 336 335 334 333 332 332 331 330 329 330 329 336
351 346 327 335 335 336 340 340 339 338 337 335 333 334 335 335 334 331 330 331 340 347 348 343 338 337 337 338 340 338 336 336 335 335 333 332 332 330 331 330 329 329 333
350 346 328 333 332 331 334 339 339 339 338 334 333 333 334 333 330 328 327 334 346 345 348 347 343 338 339 337 338 335 332 332 333 333 330 330 333 330 331 332 334 331 328
348 346 343 330 329 327 328 331 336 336 333 332 332 334 334 330 328 327 330 336 343 346 346 346 346 341 339 338 338 337 331 331 329 328 329 330 330 330 329 329 328 327 328
350 344 345 329 328 326 326 326 328 329 330 331 333 333 330 328 327 329 334 340 343 346 347 348 345 342 341 341 340 339 331 324 323 328 328 330 329 329 329 328 328 328 326
348 343 331 327 327 326 327 328 330 331 332 332 332 330 328 326 329 332 336 339 347 348 347 346 345 344 341 340 341 339 332 325 329 329 330 330 329 330 330 329 327 326 325
348 343 343 327 328 327 328 328 329 329 331 332 330 328 328 327 328 333 337 340 342 347 347 345 343 341 340 340 340 339 335 327 331 329 329 329 328 329 329 328 328 326 326
348 346 344 327 328 328 328 328 329 329 329 329 326 327 328 328 327 330 335 336 338 342 345 346 343 340 339 339 340 340 336 330 330 330 329 329 329 329 329 328 327 326 326
349 347 344 339 328 329 328 328 328 328 328 328 327 326 327 328 328 327 330 335 336 337 342 345 344 342 340 340 340 340 338 332 332 331 330 329 330 330 329 328 326 326 325
351 348 345 345 340 337 332 329 328 329 329 328 328 327 327 327 327 328 328 329 334 335 337 341 344 344 343 342 340 339 338 333 332 332 332 330 330 330 329 328 326 326 324
350 350 348 343 343 341 341 334 329 330 330 330 330 329 328 338 337 334 333 328 328 334 336 339 343 345 344 344 342 339 338 337 333 333 333 326 330 330 329 328 326 326 325
349 349 349 347 346 344 343 342 341 340 340 341 338 337 340 341 341 340 336 329 329 328 334 338 344 345 345 348 348 343 342 338 335 334 333 330 331 331 330 328 326 326 325
347 348 348 350 349 346 345 345 343 342 344 343 341 339 340 340 339 339 341 339 340 334 336 338 344 346 349 348 348 347 344 339 336 335 332 331 331 333 331 329 326 326 325
346 346 347 348 349 349 347 346 345 343 343 343 343 340 339 340 340 341 340 340 341 339 338 337 339 345 346 347 348 347 347 343 339 337 334 332 332 334 332 330 328 326 325
345 345 345 347 347 346 343 348 347 346 344 343 340 338 342 342 342 341 341 339 339 340 338 337 336 337 342 345 347 347 347 346 342 339 337 334 334 333 334 332 329 327 325
346 346 345 346 346 343 345 349 348 344 345 339 339 341 334 342 340 341 341 340 339 340 340 340 340 338 336 338 343 345 346 346 345 342 340 338 336 334 334 334 331 329 327
348 347 346 346 345 338 339 342 342 340 345 342 339 335 335 335 337 340 341 340 340 343 342 343 343 340 339 336 335 336 338 340 342 343 341 340 340 336 332 334 333 332 330
349 347 346 344 344 342 343 346 345 344 341 341 341 338 337 337 338 339 341 339 339 339 341 344 344 343 341 340 337 338 340 340 342 341 339 339 339 340 337 331 334 334 332
343 348 346 345 344 343 341 344 344 344 343 344 341 339 337 338 338 339 341 340 335 341 344 343 344 343 343 342 340 340 341 341 343 342 340 339 338 338 339 336 332 333 333
337 344 347 345 344 343 341 339 342 342 338 342 337 336 336 336 336 337 341 341 339 343 345 345 345 343 343 343 341 343 344 344 344 342 340 339 338 338 338 338 337 335 333
323 338 344 346 345 343 343 341 341 341 343 344 339 338 339 337 339 340 342 341 337 341 344 341 342 345 344 343 344 343 342 341 339 337 339 340 339 339 338 338 338 336 336
324 326 336 342 345 343 343 341 341 341 345 345 345 344 341 342 342 342 340 339 338 341 344 344 344 341 342 342 342 340 334 334 336 334 335 337 338 339 338 338 338 337 336
323 323 336 343 344 343 343 343 343 345 344 345 345 346 344 346 344 342 341 341 340 337 339 343 344 339 342 339 338 333 332 329 334 336 338 338 338 337 338 338 338 337 336
325 324 321 328 347 344 343 343 343 343 345 346 348 347 342 342 343 342 342 340 337 337 342 343 344 342 337 337 338 336 336 337 334 332 336 337 338 338 338 338 338 337 335
328 328 322 321 335 346 344 343 345 346 347 348 348 345 337 337 342 343 340 337 334 336 344 344 340 336 339 339 338 339 339 338 338 337 333 335 336 337 337 338 335 336 334
328 330 327 323 329 341 346 344 345 346 348 348 347 345 339 340 341 341 338 336 335 336 343 342 340 341 341 340 339 339 336 336 337 339 338 337 336 335 336 338 336 335 334
Wind_Speed
18 25 28 28 26 24 28 30 28 27 27 26 24 22 20 19 17 17 16 16 17 17 16 17 18 17 17 17 18 17 16 15 15 15 15 14 14 14 13 13 12 12 12
21 23 29 29 28 26 26 29 29 27 25 24 23 21 19 17 16 16 16 16 17 17 16 16 16 15 15 16 16 16 16 15 14 14 14 14 13 14 13 13 13 13 14
25 22 28 29 28 28 27 27 27 27 24 22 21 20 19 17 15 15 16 17 16 15 14 14 14 14 14 14 15 14 14 14 14 14 13 13 12 12 12 11 11 13 12
27 23 23 29 28 28 27 27 27 25 24 22 21 19 16 16 16 16 17 16 16 14 13 12 12 12 12 11 12 12 12 12 10 13 11 11 11 11 11 11 10 11 11
23 24 24 29 29 27 27 27 25 23 22 20 19 18 17 16 16 16 15 15 14 14 12 12 9 9 9 9 9 9 9 10 11 11 11 11 10 10 10 11 10 11 11
22 21 27 29 28 28 27 26 24 22 21 21 20 17 16 15 14 14 14 13 12 12 13 11 11 8 8 7 6 6 7 8 12 10 11 11 10 10 10 11 10 10 10
22 20 22 27 27 26 25 25 23 22 20 19 18 18 16 15 15 14 13 12 12 13 12 12 11 10 8 6 4 4 4 6 8 8 9 10 10 10 10 10 10 10 10
24 21 20 25 25 26 25 24 22 21 20 19 18 17 15 14 14 14 13 13 11 11 12 12 11 9 7 5 3 3 3 5 7 8 8 8 10 10 10 9 9 10 9
21 21 20 21 24 24 24 23 22 21 19 19 17 17 16 14 13 12 12 11 10 10 10 11 11 10 8 5 3 2 1 3 5 6 7 7 8 8 9 10 10 9 9
20 20 20 19 20 21 21 22 22 20 19 17 17 15 14 13 13 12 11 11 10 9 10 11 11 11 9 7 4 2 2 2 3 5 5 5 9 8 8 9 9 8 8
17 19 20 21 20 19 18 21 21 20 18 17 16 15 15 12 12 11 11 10 10 9 7 8 10 10 10 8 6 4 3 3 4 3 3 3 7 7 8 8 8 8 7
20 20 20 20 19 19 17 17 19 18 16 17 16 15 13 11 11 10 9 9 9 8 7 7 8 9 9 7 5 6 6 6 5 4 3 2 6 7 7 7 7 7 6
19 19 19 19 19 19 18 18 17 17 16 17 18 16 14 11 10 10 8 8 7 8 7 7 7 8 8 8 8 7 7 5 5 4 5 4 6 9 8 8 7 7 5
22 22 20 20 21 21 19 20 20 18 17 16 16 17 16 14 13 11 9 9 8 8 8 7 7 7 9 9 9 8 8 7 7 7 8 8 8 11 10 10 9 7 6
22 23 22 21 23 23 24 19 19 19 19 17 18 19 15 14 13 12 10 9 9 8 8 8 7 7 7 8 9 9 9 8 9 11 12 12 11 12 13 12 11 10 8
19 21 21 22 23 23 23 22 20 21 20 22 20 19 21 17 15 12 11 10 9 9 8 7 6 6 8 8 9 9 10 9 11 13 12 13 14 13 15 14 13 12 11
22 19 23 23 23 26 26 25 24 23 20 22 22 22 22 20 19 16 12 11 10 9 9 8 9 8 8 10 10 9 10 11 12 12 12 12 11 17 17 17 16 14 13
19 27 26 24 25 27 26 23 21 20 22 22 21 20 22 20 20 18 15 14 12 11 10 10 11 9 9 10 9 10 11 12 11 11 12 9 11 13 16 17 17 17 15
26 23 28 30 28 27 26 22 20 18 19 17 19 19 20 20 19 18 15 13 14 11 10 11 11 10 10 10 10 10 11 9 7 7 8 9 10 13 13 16 18 19 18
13 18 20 26 28 27 24 24 19 18 20 19 21 20 21 20 19 18 14 14 14 10 9 10 11 10 9 8 7 7 5 5 5 6 7 7 8 11 13 14 13 17 21
21 19 18 20 27 27 25 24 23 25 21 20 24 23 21 20 19 18 15 15 16 12 10 10 10 9 7 7 5 6 5 4 6 8 6 5 7 8 11 13 14 15 16
11 20 22 24 26 33 29 29 21 22 20 18 17 18 21 20 20 18 18 16 17 13 13 12 10 7 5 9 5 3 2 2 1 2 2 4 4 6 9 12 14 15 16
13 14 20 26 28 29 28 24 19 15 17 17 18 18 23 21 20 19 18 18 18 15 14 15 13 14 8 7 7 2 2 2 1 0 1 2 2 5 7 9 11 13 14
19 17 20 25 26 32 31 27 30 29 24 26 21 18 19 21 20 20 17 17 18 15 14 14 14 11 10 10 6 4 2 2 1 2 3 2 3 5 6 6 8 10 10
23 18 15 18 26 29 33 36 31 28 27 19 18 21 22 21 21 19 17 17 19 16 14 13 15 15 12 11 8 7 4 3 2 3 4 2 5 3 3 6 6 5 6
28 24 16 9 16 24 27 31 32 31 27 24 21 21 19 18 19 21 18 18 20 19 17 16 17 14 12 9 8 7 6 4 5 4 4 4 6 4 6 4 6 4 4
Wind_Direction
152 153 158 154 149 147 155 159 157 151 146 145 144 141 138 134 132 131 130 130 131 126 120 115 109 105 97 88 82 83 85 83 84 82 81 76 81 83 77 82 83 80 64
150 154 158 156 153 153 152 159 157 152 149 147 146 144 140 136 133 131 131 133 133 130 124 120 114 106 98 93 87 86 86 89 89 89 86 80 80 77 76 76 77 85 64
152 160 160 157 156 155 154 157 157 155 153 152 149 146 142 138 135 134 134 135 134 132 128 126 120 112 105 99 91 86 82 85 92 96 87 79 79 75 78 77 75 72 67
157 159 160 161 157 155 154 154 155 156 155 154 149 145 142 141 139 138 138 140 141 138 136 136 131 123 114 106 94 84 80 86 86 84 82 85 84 84 89 73 74 71 76
157 157 163 163 158 156 157 155 155 155 154 153 150 148 148 148 145 143 144 144 146 145 145 144 140 131 122 107 94 83 82 79 81 84 86 89 86 93 92 81 80 79 75
159 160 167 167 161 159 159 156 155 156 157 157 156 155 152 150 148 146 145 147 148 153 156 155 154 156 131 114 97 85 76 74 82 85 93 93 90 102 97 91 89 85 83
157 161 168 169 164 162 163 161 160 160 160 160 158 157 157 156 155 154 153 154 157 160 167 172 168 162 149 134 113 115 102 81 86 86 91 94 101 106 103 101 99 91 86
159 164 169 173 169 168 168 165 165 164 164 166 167 165 164 163 163 162 163 162 165 169 171 176 172 173 167 158 132 132 123 99 94 94 92 93 112 109 105 100 97 93 85
167 167 169 170 176 175 174 172 172 172 171 172 172 171 171 172 171 173 170 170 170 172 178 178 183 184 188 184 164 150 139 112 111 107 99 95 115 114 113 109 104 97 87
171 173 171 171 174 176 182 181 179 179 178 180 179 178 178 181 182 181 180 180 179 177 185 189 192 193 198 199 202 205 203 164 129 111 108 119 126 127 120 116 114 107 91
176 178 177 178 178 178 183 186 189 188 188 188 187 190 190 186 192 193 195 190 189 187 190 190 198 199 204 209 208 208 212 200 176 158 136 120 142 141 138 130 124 120 107
183 185 187 185 183 183 184 187 192 192 193 193 195 199 195 197 199 195 203 203 204 198 197 195 193 202 205 208 224 225 211 209 207 203 173 154 165 163 159 150 141 137 123
189 190 193 192 192 190 190 191 194 196 198 203 204 202 206 203 207 208 207 209 210 216 203 205 201 204 216 210 219 225 226 224 234 225 216 230 198 191 182 173 164 152 143
193 198 197 196 197 197 197 200 202 198 201 206 208 212 210 213 213 211 214 214 214 216 216 211 212 217 218 225 226 230 236 240 246 238 227 242 229 203 197 192 184 179 172
204 203 201 199 199 202 204 204 206 206 207 210 213 216 215 217 218 221 222 221 221 225 223 222 221 224 236 233 234 234 239 243 246 251 253 247 240 214 210 206 200 197 190
209 211 208 206 205 205 202 206 207 211 213 218 219 218 224 224 227 228 229 230 231 227 228 227 230 232 245 240 238 237 244 245 247 253 254 246 236 229 216 216 214 210 207
215 211 212 210 210 211 209 210 212 214 215 221 223 225 228 231 234 233 233 232 233 233 240 242 241 239 240 241 238 240 247 247 249 253 258 264 234 232 226 219 220 219 219
216 218 217 213 216 216 213 211 210 215 219 223 224 226 231 234 236 235 236 238 238 243 250 245 245 235 238 237 236 238 245 254 259 257 258 247 240 226 233 231 227 225 223
226 219 217 218 216 215 217 217 217 220 222 225 228 229 234 236 235 235 235 237 237 246 246 240 246 228 234 237 239 245 255 258 261 249 251 254 246 230 230 240 235 233 233
247 234 225 224 223 220 217 218 219 223 229 229 231 233 237 234 234 235 231 229 227 232 245 237 228 231 228 230 224 222 231 241 250 254 267 253 244 234 235 235 240 239 242
273 253 240 236 233 223 211 205 214 218 219 227 230 234 233 232 228 229 224 225 221 232 229 221 206 191 193 190 201 233 237 245 267 277 263 252 245 242 239 241 242 246 247
276 251 240 236 228 230 217 211 207 210 219 228 230 230 230 232 227 228 224 221 228 230 220 218 203 196 204 201 227 226 212 148 33 358 303 268 261 247 252 248 245 247 251
327 279 251 237 229 227 220 209 203 196 217 225 227 225 231 230 226 228 229 226 231 225 223 219 215 217 198 190 202 218 180 201 236 191 192 273 296 291 272 264 257 253 251
342 316 273 248 234 228 219 215 204 202 209 220 219 215 221 225 226 230 230 229 224 207 218 212 211 206 186 180 175 185 129 130 205 212 214 238 304 300 296 289 278 259 250
0 347 314 267 237 225 217 212 213 212 216 217 211 207 212 222 227 227 222 219 206 210 209 204 201 192 191 188 187 170 164 147 153 247 297 287 317 321 324 324 305 276 243
9 5 359 305 248 232 225 219 215 217 211 210 209 204 206 215 222 224 216 211 210 209 207 204 197 197 195 192 185 184 189 195 181 193 242 288 310 317 325 351 353 323 270